User: anonymous   Login
Location: Carrières
(48.9495°N, 2.0407°E)
Time: 22:58:02
(UTC+00:00)
Language:

NOAA 15 - Orbit

View from above orbital plane
View from above orbital plane
View from above satellite
View from above satellite

Ground track
Ground track

The orbit data is extracted from the following two-line orbital elements,

1 25338U 98030A   24176.81136797  .00000298  00000-0  14109-3 0  9990
2 25338  98.5677 203.7788 0009234 306.4042  53.6286 14.26610226358520
Epoch (UTC): 24 June 2024 19:28:22
Eccentricity: 0.0009234
inclination: 98.5677°
perigee height: 796 km
apogee height: 810 km
right ascension of ascending node: 203.7788°
argument of perigee: 306.4042°
revolutions per day: 14.26610226
mean anomaly at epoch: 53.6286°
orbit number at epoch: 35852

The dashed part of the orbit path shows where the satellite is in the earth's shadow,  

DLR